Weather Roundup
Issued by NWS Chicago, IL

Home | Current Version | Previous Version | Text Only | Print | Product List | Glossary On
Versions: 1 2 3 4 5 6 7 8 9 10 11 12 13 14 15 16 17 18 19 20 21 22 23 24 25 26 27 28 29 30 31 32 33 34 35 36 37 38 39 40 41 42 43 44 45 46 47 48 49 50
000
NZUS59 KLOT 011010
HRRLOT

CHICAGO AREA WEATHER ROUNDUP
NATIONAL WEATHER SERVICE CHICAGO/ROMEOVILLE IL
500 AM CDT SAT NOV 01 2014

NOTE: "FAIR" INDICATES FEW OR NO CLOUDS BELOW 12,000 FEET WITH NO
SIGNIFICANT WEATHER AND/OR OBSTRUCTIONS TO VISIBILITY.

* THESE STATIONS ARE NOT UNDER NWS QUALITY CONTROL. THEY ALSO MAY NOT
  REPORT WEATHER SUCH AS PRECIPITATION OR FOG.

ILZ005-006-012>014-019>023-011100-
NORTHEAST ILLINOIS

CITY           SKY/WX    TMP DP  RH WIND       PRES   REMARKS
OHARE          CLOUDY    35  23  61 N15       30.36R WCI  25
MIDWAY         CLOUDY    40  27  59 N13       30.35R
AURORA         CLOUDY    34  21  59 N14       30.39R WCI  25
LANSING*       CLOUDY    38  26  61 N15G24    30.33R
JOLIET*        CLOUDY    35  23  62 N10       30.37R WCI  27
WAUKEGAN       CLOUDY    34  23  64 NW8       30.38R WCI  27
DUPAGE AIRPORT CLOUDY    34  22  61 N13       30.37R WCI  25
WHEELING       CLOUDY    37  23  56 N12       30.39R
KANKAKEE*      CLOUDY    36  26  67 NW13G18   30.34S
MORRIS*        MOCLDY    34  24  68 NW5       30.37R WCI  29
LEWIS AIRPORT* CLOUDY    36  23  61 N10G17    30.36S
NORTHERLY IS     N/A     39  27  62 N21         N/A
$$

WIZ051-052-058>065-066-070>072-011100-
SOUTHEAST WISCONSIN

CITY           SKY/WX    TMP DP  RH WIND       PRES   REMARKS
MILWAUKEE      CLOUDY    35  22  58 NW9G18    30.40R WCI  28
KENOSHA*       CLOUDY    35  23  61 N12       30.39R WCI  27
RACINE*        CLOUDY    37  25  61 N12G24    30.40R
BURLINGTON     CLOUDY    32  21  64 N13       30.40R WCI  23
WAUKESHA       CLOUDY    32  21  64 N8        30.42R WCI  25
WEST BEND      CLOUDY    32  21  64 N8        30.42R WCI  25
$$

INZ001>003-010>013-019-020-011100-
NORTHWEST INDIANA

CITY           SKY/WX    TMP DP  RH WIND       PRES   REMARKS
GARY*          CLOUDY   N/A N/A N/A N17G29    30.34
MICHIGAN CITY* NOT AVBL
RENSSELAER*    NOT AVBL
VALPARAISO     CLOUDY    31  24  75 NE5       30.32R WCI  26
$$

LMZ740>746-011100-
SOUTHERN LAKE MICHIGAN

STATION/POSITION TIME  SKY/WX   TEMP WIND        PRES    VSBY
                                AIR  DIR/SP/G
                 (UTC)          (F)  (DEG/KT/KT) (MB)    (MI)
HARRISON CRIB    0900            40   20/ 26/ 33   N/A
BURNHAM HARBOR   1000            40   30/ 21/ 25   N/A
CALUMET HARBOR   1000            40  360/ 15/ 26 1026.2R
BURNS HARBOR     NOT AVBL
MICHIGAN CITY    1000            38  360/ 25/ 33   N/A
$$

ABBREVIATIONS USED IN REMARKS
   TC - TEMPERATURE IN CELSIUS
  WCI - WIND CHILL INDEX
   HX - HEAT INDEX
  VSB - VISIBILITY
$$



USA.gov is the U.S. government's official web portal to all federal, state and local government web resources and services.